Location: North Evanston
(42.0634°N, 87.6976°W)
Time: 22:58:06
(UTC+00:00)

Transit 2A - Pass Details

Date: 15 May 2026
Orbit: 595 x 949 km, 66.7° (Epoch: 5 June)

Event Time Altitude Azimuth Distance (km) Brightness Sun altitude
Rises 23:46:05 0° 274° (W) 3,539 11.3 12.8°
Reaches altitude 10° 23:50:42 10° 306° (NW) 2,530 10.3 12.0°
Maximum altitude 23:52:42 12° 326° (NW) 2,374 9.5 11.6°
Drops below altitude 10° 23:54:39 10° 346° (NNW) 2,456 9.1 11.3°
Sets 23:58:57 0° 19° (NNE) 3,295 9.3 10.5°
